| time (UTC) | temp F | wind direction | speed MPH | gust MPH | rain 1hr in | rain 24hr in | rain mn in | humidity % | barometer mb |
| 20260905103817 | 82 | 303 | 0.0 | 0.0 | 0.00 | 0.00 | 0.00 | 51 | 1012.4 |
| 20260905102829 | 82 | 303 | 0.0 | 0.0 | 0.00 | 0.00 | 0.00 | 51 | 1012.3 |
| 20260905101825 | 83 | 303 | 0.0 | 0.0 | 0.00 | 0.00 | 0.00 | 51 | 1012.3 |
| 20260905100820 | 83 | 303 | 0.0 | 0.0 | 0.00 | 0.00 | 0.00 | 50 | 1012.3 |
| 20260905095832 | 83 | 303 | 0.0 | 0.0 | 0.00 | 0.00 | 0.00 | 50 | 1012.3 |
| 20260905094845 | 83 | 303 | 0.0 | 0.0 | 0.00 | 0.00 | 0.00 | 49 | 1012.2 |
| 20260905093818 | 83 | 303 | 0.0 | 0.0 | 0.00 | 0.00 | 0.00 | 49 | 1012.3 |
| 20260905092815 | 84 | 303 | 0.0 | 0.0 | 0.00 | 0.00 | 0.00 | 48 | 1012.3 |
| 20260905091826 | 84 | 303 | 0.0 | 0.0 | 0.00 | 0.00 | 0.00 | 47 | 1012.2 |
| 20260905090819 | 84 | 303 | 0.0 | 0.0 | 0.00 | 0.00 | 0.00 | 47 | 1012.1 |
| 20260905085852 | 84 | 303 | 0.0 | 0.0 | 0.00 | 0.00 | 0.00 | 47 | 1012.2 |
| 20260905084824 | 84 | 303 | 0.0 | 0.0 | 0.00 | 0.00 | 0.00 | 48 | 1012.3 |
| 20260905083819 | 84 | 303 | 0.0 | 0.0 | 0.00 | 0.00 | 0.00 | 47 | 1012.3 |
| 20260905082816 | 84 | 303 | 0.0 | 0.0 | 0.00 | 0.00 | 0.00 | 46 | 1012.3 |
| 20260905081830 | 85 | 303 | 0.0 | 0.0 | 0.00 | 0.00 | 0.00 | 46 | 1012.2 |
| 20260905080823 | 85 | 303 | 0.0 | 0.0 | 0.00 | 0.00 | 0.00 | 45 | 1012.2 |
| 20260905075816 | 85 | 303 | 0.0 | 0.0 | 0.00 | 0.00 | 0.00 | 45 | 1012.2 |
| 20260905074828 | 86 | 303 | 0.0 | 0.0 | 0.00 | 0.00 | 0.00 | 45 | 1012.2 |
| 20260905073844 | 86 | 303 | 0.0 | 0.0 | 0.00 | 0.00 | 0.00 | 44 | 1012.2 |
| 20260905072817 | 86 | 303 | 0.0 | 0.0 | 0.00 | 0.00 | 0.00 | 44 | 1012.1 |
| 20260905071850 | 86 | 303 | 0.0 | 0.0 | 0.00 | 0.00 | 0.00 | 43 | 1012.1 |
| 20260905070822 | 87 | 303 | 0.0 | 0.0 | 0.00 | 0.00 | 0.00 | 43 | 1012.1 |
| 20260905065815 | 87 | 303 | 0.0 | 0.0 | 0.00 | 0.00 | 0.00 | 42 | 1012.1 |
| 20260905064828 | 88 | 303 | 0.0 | 0.0 | 0.00 | 0.00 | 0.00 | 41 | 1012.1 |
| 20260905063824 | 88 | 303 | 0.0 | 0.0 | 0.00 | 0.00 | 0.00 | 41 | 1012.1 |
| 20260905062838 | 89 | 303 | 0.0 | 0.0 | 0.00 | 0.00 | 0.00 | 39 | 1012.0 |
| 20260905061829 | 89 | 303 | 0.0 | 0.0 | 0.00 | 0.00 | 0.00 | 39 | 1011.9 |
| 20260905060821 | 89 | 303 | 0.0 | 0.0 | 0.00 | 0.00 | 0.00 | 38 | 1011.9 |
| 20260905055854 | 90 | 303 | 0.0 | 0.0 | 0.00 | 0.00 | 0.00 | 37 | 1011.8 |
| 20260905054847 | 91 | 303 | 0.0 | 0.0 | 0.00 | 0.00 | 0.00 | 36 | 1011.7 |
| 20260905053824 | 91 | 303 | 0.0 | 1.0 | 0.00 | 0.00 | 0.00 | 35 | 1011.8 |
| 20260905052819 | 90 | 303 | 1.0 | 2.0 | 0.00 | 0.00 | 0.00 | 35 | 1011.7 |
| 20260905051831 | 90 | 303 | 0.0 | 0.0 | 0.00 | 0.00 | 0.00 | 35 | 1011.7 |
| 20260905050844 | 91 | 303 | 0.0 | 0.0 | 0.00 | 0.00 | 0.00 | 35 | 1011.6 |
| 20260905045816 | 91 | 303 | 0.0 | 0.0 | 0.00 | 0.00 | 0.00 | 34 | 1011.5 |
| 20260905044831 | 92 | 303 | 0.0 | 0.0 | 0.00 | 0.00 | 0.00 | 33 | 1011.4 |
| 20260905043844 | 93 | 303 | 0.0 | 0.0 | 0.00 | 0.00 | 0.00 | 32 | 1011.4 |
| 20260905042815 | 94 | 303 | 0.0 | 0.0 | 0.00 | 0.00 | 0.00 | 30 | 1011.4 |
| 20260905041829 | 95 | 303 | 0.0 | 0.0 | 0.00 | 0.00 | 0.00 | 29 | 1011.3 |
| 20260905040822 | 95 | 303 | 0.0 | 2.0 | 0.00 | 0.00 | 0.00 | 28 | 1011.2 |
| 20260905035820 | 96 | 303 | 0.0 | 2.0 | 0.00 | 0.00 | 0.00 | 27 | 1011.1 |
| 20260905034813 | 96 | 303 | 1.0 | 4.0 | 0.00 | 0.00 | 0.00 | 27 | 1011.1 |
| 20260905033846 | 97 | 303 | 1.0 | 2.0 | 0.00 | 0.00 | 0.00 | 27 | 1010.9 |
| 20260905032838 | 97 | 303 | 1.0 | 3.0 | 0.00 | 0.00 | 0.00 | 27 | 1010.9 |
| 20260905031830 | 97 | 303 | 2.0 | 4.0 | 0.00 | 0.00 | 0.00 | 27 | 1010.7 |
| 20260905030822 | 97 | 303 | 3.0 | 6.0 | 0.00 | 0.00 | 0.00 | 29 | 1010.5 |
| 20260905025820 | 97 | 303 | 0.0 | 2.0 | 0.00 | 0.00 | 0.00 | 33 | 1010.4 |
| 20260905024815 | 97 | 303 | 0.0 | 2.0 | 0.00 | 0.00 | 0.00 | 33 | 1010.1 |
| 20260905023825 | 97 | 303 | 1.0 | 3.0 | 0.00 | 0.00 | 0.00 | 32 | 1010.0 |
| 20260905022839 | 97 | 303 | 2.0 | 3.0 | 0.00 | 0.00 | 0.00 | 33 | 1009.8 |
| 20260905021830 | 97 | 303 | 0.0 | 2.0 | 0.00 | 0.00 | 0.00 | 32 | 1009.8 |
| 20260905020822 | 97 | 303 | 0.0 | 2.0 | 0.00 | 0.00 | 0.00 | 33 | 1009.7 |
| 20260905015820 | 97 | 303 | 0.0 | 4.0 | 0.00 | 0.00 | 0.00 | 32 | 1009.6 |
| 20260905014814 | 98 | 303 | 0.0 | 0.0 | 0.00 | 0.00 | 0.00 | 31 | 1009.6 |
| 20260905013827 | 98 | 303 | 0.0 | 0.0 | 0.00 | 0.00 | 0.00 | 31 | 1009.6 |
| 20260905012820 | 99 | 303 | 0.0 | 0.0 | 0.00 | 0.00 | 0.00 | 31 | 1009.6 |
| 20260905011812 | 99 | 303 | 1.0 | 2.0 | 0.00 | 0.00 | 0.00 | 30 | 1009.6 |
| 20260905010829 | 99 | 303 | 0.0 | 1.0 | 0.00 | 0.00 | 0.00 | 30 | 1009.5 |
| 20260905005822 | 99 | 303 | 1.0 | 3.0 | 0.00 | 0.00 | 0.00 | 30 | 1009.5 |
| 20260905004814 | 99 | 303 | 1.0 | 2.0 | 0.00 | 0.00 | 0.00 | 30 | 1009.5 |
| 20260905003828 | 99 | 303 | 0.0 | 0.0 | 0.00 | 0.00 | 0.00 | 30 | 1009.6 |
| 20260905002823 | 99 | 303 | 0.0 | 1.0 | 0.00 | 0.00 | 0.00 | 30 | 1009.6 |
| 20260905001839 | 100 | 303 | 1.0 | 2.0 | 0.00 | 0.00 | 0.00 | 29 | 1009.7 |
| 20260905000830 | 101 | 303 | 0.0 | 2.0 | 0.00 | 0.00 | 0.00 | 30 | 1009.7 |
| 20260904235820 | 101 | 303 | 2.0 | 4.0 | 0.00 | 0.00 | 0.00 | 29 | 1009.7 |
| 20260904234812 | 101 | 303 | 1.0 | 3.0 | 0.00 | 0.00 | 0.00 | 30 | 1009.7 |
| 20260904233822 | 101 | 303 | 0.0 | 4.0 | 0.00 | 0.00 | 0.00 | 30 | 1009.8 |
| 20260904232836 | 102 | 303 | 1.0 | 5.0 | 0.00 | 0.00 | 0.00 | 29 | 1009.8 |
| 20260904231826 | 103 | 303 | 1.0 | 6.0 | 0.00 | 0.00 | 0.00 | 29 | 1009.8 |
| 20260904230822 | 102 | 303 | 1.0 | 4.0 | 0.00 | 0.00 | 0.00 | 30 | 1009.9 |
| 20260904225816 | 103 | 303 | 1.0 | 4.0 | 0.00 | 0.00 | 0.00 | 27 | 1010.0 |
| 20260904224830 | 104 | 303 | 1.0 | 3.0 | 0.00 | 0.00 | 0.00 | 28 | 1010.0 |
| 20260904223821 | 100 | 303 | 1.0 | 5.0 | 0.00 | 0.00 | 0.00 | 31 | 1010.2 |
| 20260904222817 | 101 | 303 | 1.0 | 2.0 | 0.00 | 0.00 | 0.00 | 30 | 1010.3 |
| 20260904221850 | 101 | 303 | 1.0 | 3.0 | 0.00 | 0.00 | 0.00 | 32 | 1010.4 |
| 20260904220843 | 103 | 303 | 1.0 | 5.0 | 0.00 | 0.00 | 0.00 | 30 | 1010.6 |
| 20260904215814 | 102 | 303 | 1.0 | 5.0 | 0.00 | 0.00 | 0.00 | 30 | 1010.7 |
| 20260904214826 | 101 | 303 | 2.0 | 4.0 | 0.00 | 0.00 | 0.00 | 31 | 1010.8 |
| 20260904213818 | 102 | 303 | 1.0 | 5.0 | 0.00 | 0.00 | 0.00 | 30 | 1011.0 |
| 20260904212815 | 104 | 303 | 3.0 | 5.0 | 0.00 | 0.00 | 0.00 | 29 | 1011.1 |
| 20260904211827 | 105 | 303 | 1.0 | 6.0 | 0.00 | 0.00 | 0.00 | 29 | 1011.3 |
| 20260904210840 | 104 | 303 | 3.0 | 8.0 | 0.00 | 0.00 | 0.00 | 29 | 1011.4 |
| 20260904205812 | 104 | 303 | 2.0 | 5.0 | 0.00 | 0.00 | 0.00 | 30 | 1011.4 |
| 20260904204823 | 104 | 303 | 1.0 | 4.0 | 0.00 | 0.00 | 0.00 | 30 | 1011.4 |
| 20260904203815 | 103 | 303 | 1.0 | 4.0 | 0.00 | 0.00 | 0.00 | 31 | 1011.6 |
| 20260904202830 | 104 | 303 | 3.0 | 6.0 | 0.00 | 0.00 | 0.00 | 30 | 1011.8 |
| 20260904201822 | 103 | 303 | 2.0 | 5.0 | 0.00 | 0.00 | 0.00 | 32 | 1011.8 |
| 20260904200837 | 104 | 303 | 1.0 | 3.0 | 0.00 | 0.00 | 0.00 | 34 | 1012.1 |
| 20260904195828 | 102 | 303 | 2.0 | 6.0 | 0.00 | 0.00 | 0.00 | 35 | 1012.2 |
| 20260904194822 | 102 | 303 | 1.0 | 4.0 | 0.00 | 0.00 | 0.00 | 34 | 1012.4 |
| 20260904193819 | 102 | 303 | 1.0 | 6.0 | 0.00 | 0.00 | 0.00 | 34 | 1012.6 |
| 20260904192832 | 103 | 303 | 1.0 | 4.0 | 0.00 | 0.00 | 0.00 | 35 | 1012.7 |
| 20260904191824 | 100 | 303 | 1.0 | 5.0 | 0.00 | 0.00 | 0.00 | 38 | 1012.7 |
| 20260904190818 | 101 | 303 | 3.0 | 10.0 | 0.00 | 0.00 | 0.00 | 36 | 1013.1 |
| 20260904185851 | 99 | 303 | 2.0 | 6.0 | 0.00 | 0.00 | 0.00 | 38 | 1013.3 |
| 20260904184827 | 99 | 303 | 1.0 | 6.0 | 0.00 | 0.00 | 0.00 | 38 | 1013.3 |
| 20260904183817 | 99 | 303 | 2.0 | 3.0 | 0.00 | 0.00 | 0.00 | 39 | 1013.5 |
| 20260904182850 | 98 | 303 | 1.0 | 8.0 | 0.00 | 0.00 | 0.00 | 39 | 1013.7 |
| 20260904181823 | 97 | 303 | 2.0 | 6.0 | 0.00 | 0.00 | 0.00 | 39 | 1013.8 |
| 20260904180816 | 98 | 303 | 1.0 | 4.0 | 0.00 | 0.00 | 0.00 | 41 | 1013.9 |
| 20260904175814 | 99 | 303 | 2.0 | 6.0 | 0.00 | 0.00 | 0.00 | 42 | 1014.0 |
| 20260904174826 | 98 | 303 | 1.0 | 5.0 | 0.00 | 0.00 | 0.00 | 41 | 1014.0 |
| 20260904173819 | 98 | 303 | 2.0 | 9.0 | 0.00 | 0.00 | 0.00 | 42 | 1014.0 |
| 20260904172849 | 98 | 303 | 1.0 | 4.0 | 0.00 | 0.00 | 0.00 | 43 | 1014.1 |
| 20260904171820 | 98 | 303 | 2.0 | 4.0 | 0.00 | 0.00 | 0.00 | 42 | 1014.1 |
| 20260904170814 | 98 | 303 | 3.0 | 8.0 | 0.00 | 0.00 | 0.00 | 43 | 1014.1 |
| 20260904165829 | 97 | 303 | 1.0 | 5.0 | 0.00 | 0.00 | 0.00 | 44 | 1014.1 |
| 20260904164821 | 96 | 303 | 3.0 | 6.0 | 0.00 | 0.00 | 0.00 | 45 | 1014.0 |
| 20260904163814 | 96 | 303 | 2.0 | 6.0 | 0.00 | 0.00 | 0.00 | 44 | 1013.9 |
| 20260904162827 | 96 | 303 | 1.0 | 4.0 | 0.00 | 0.00 | 0.00 | 46 | 1013.8 |
| 20260904161820 | 96 | 303 | 1.0 | 3.0 | 0.00 | 0.00 | 0.00 | 47 | 1013.8 |
| 20260904160836 | 95 | 303 | 1.0 | 6.0 | 0.00 | 0.00 | 0.00 | 49 | 1013.9 |
| 20260904155828 | 95 | 303 | 1.0 | 3.0 | 0.00 | 0.00 | 0.00 | 48 | 1013.9 |
| 20260904154821 | 94 | 303 | 1.0 | 5.0 | 0.00 | 0.00 | 0.00 | 49 | 1013.8 |
| 20260904153813 | 94 | 303 | 0.0 | 5.0 | 0.00 | 0.00 | 0.00 | 50 | 1013.7 |
| 20260904152825 | 93 | 303 | 1.0 | 4.0 | 0.00 | 0.00 | 0.00 | 51 | 1013.6 |
| 20260904151824 | 93 | 303 | 1.0 | 6.0 | 0.00 | 0.00 | 0.00 | 50 | 1013.6 |
| 20260904150815 | 93 | 303 | 1.0 | 5.0 | 0.00 | 0.00 | 0.00 | 52 | 1013.5 |
| 20260904145848 | 92 | 303 | 0.0 | 3.0 | 0.00 | 0.00 | 0.00 | 54 | 1013.5 |
| 20260904144820 | 90 | 303 | 1.0 | 4.0 | 0.00 | 0.00 | 0.00 | 55 | 1013.5 |
| 20260904143813 | 90 | 303 | 1.0 | 3.0 | 0.00 | 0.00 | 0.00 | 55 | 1013.5 |
| 20260904142830 | 90 | 303 | 1.0 | 4.0 | 0.00 | 0.00 | 0.00 | 56 | 1013.3 |
| 20260904141823 | 89 | 303 | 1.0 | 2.0 | 0.00 | 0.00 | 0.00 | 57 | 1013.2 |
| 20260904140814 | 87 | 303 | 0.0 | 2.0 | 0.00 | 0.00 | 0.00 | 60 | 1013.2 |
| 20260904135828 | 86 | 303 | 0.0 | 4.0 | 0.00 | 0.00 | 0.00 | 62 | 1012.9 |
| 20260904134820 | 85 | 303 | 0.0 | 2.0 | 0.00 | 0.00 | 0.00 | 63 | 1012.9 |
| 20260904133837 | 84 | 303 | 0.0 | 2.0 | 0.00 | 0.00 | 0.00 | 64 | 1012.7 |
| 20260904132848 | 84 | 303 | 0.0 | 1.0 | 0.00 | 0.00 | 0.00 | 64 | 1012.6 |
| 20260904131841 | 84 | 303 | 0.0 | 2.0 | 0.00 | 0.00 | 0.00 | 64 | 1012.4 |
| 20260904130814 | 84 | 303 | 0.0 | 3.0 | 0.00 | 0.00 | 0.00 | 64 | 1012.2 |
| 20260904125828 | 84 | 303 | 1.0 | 2.0 | 0.00 | 0.00 | 0.00 | 63 | 1012.1 |
| 20260904124823 | 84 | 303 | 0.0 | 4.0 | 0.00 | 0.00 | 0.00 | 63 | 1012.0 |
| 20260904123839 | 84 | 303 | 0.0 | 2.0 | 0.00 | 0.00 | 0.00 | 63 | 1011.8 |
| 20260904122813 | 84 | 303 | 0.0 | 2.0 | 0.00 | 0.00 | 0.00 | 62 | 1011.8 |
| 20260904121825 | 84 | 303 | 0.0 | 1.0 | 0.00 | 0.00 | 0.00 | 62 | 1011.7 |
| 20260904120819 | 84 | 303 | 0.0 | 2.0 | 0.00 | 0.00 | 0.00 | 62 | 1011.6 |
| 20260904115813 | 84 | 303 | 0.0 | 2.0 | 0.00 | 0.00 | 0.00 | 62 | 1011.7 |
| 20260904114814 | 84 | 303 | 0.0 | 2.0 | 0.00 | 0.00 | 0.00 | 61 | 1011.6 |
| 20260904113851 | 84 | 303 | 0.0 | 2.0 | 0.00 | 0.00 | 0.00 | 61 | 1011.6 |
| 20260904112843 | 84 | 303 | 0.0 | 1.0 | 0.00 | 0.00 | 0.00 | 61 | 1011.6 |
| 20260904111816 | 84 | 303 | 0.0 | 1.0 | 0.00 | 0.00 | 0.00 | 61 | 1011.6 |
| 20260904110830 | 84 | 303 | 0.0 | 1.0 | 0.00 | 0.00 | 0.00 | 61 | 1011.7 |
| 20260904105845 | 84 | 303 | 0.0 | 1.0 | 0.00 | 0.00 | 0.00 | 60 | 1011.6 |
| 20260904104823 | 84 | 303 | 0.0 | 1.0 | 0.00 | 0.00 | 0.00 | 60 | 1011.5 |